Location: B�hl
(48.6968°N, 8.1352°E)
Time: 08:25:10
(UTC+00:00)

USA 186 - Pass Details

Date: 08 March 2021
Orbit: 261 x 430 km, 96.9° (Epoch: 08 April)

Event Time Altitude Azimuth Distance (km) Brightness Sun altitude
Exits shadow 19:01:52 67° 187° (S) 341 1.2 -17.2°
Maximum altitude 19:02:09 82° 257° (WSW) 319 1.1 -17.2°
Drops below altitude 10° 19:04:48 10° 346° (NNW) 1,254 4.5 -17.6°
Sets 19:06:46 0° 348° (NNW) 2,131 5.7 -17.9°
